Regional Weather Roundup
Issued by NWS

Home | Current Version | Previous Version | Text Only | Print | Product List | Glossary Off
Versions: 1 2 3 4 5 6 7 8 9 10 11 12 13 14 15 16 17 18 19 20 21 22 23 24 25 26 27 28 29 30 31 32 33 34 35 36 37 38 39 40 41 42 43 44 45 46 47 48 49 50

000
ASUS43 KLSX 061107
RWRMO

WEATHER SUMMARY FOR MISSOURI
NATIONAL WEATHER SERVICE SPRINGFIELD MO
600 AM CDT WED MAY 06 2015

NOTE: "FAIR" INDICATES FEW OR NO CLOUDS BELOW 12,000 FEET WITH NO
       SIGNIFICANT WEATHER AND/OR OBSTRUCTIONS TO VISIBILITY.
       CURRENT SKY AND/OR WEATHER CONDITIONS ARE NOT AVAILABLE FOR
       CHILLICOTHE AND FARMINGTON.

MOZ001>031-035>038-043-044-053-054-061200-
...NORTHERN AND WESTERN MISSOURI...

CITY           SKY/WX    TMP DP  RH WIND       PRES   REMARKS
KANSAS CTY INT CLOUDY    67  56  67 SE15      29.93S
KANSAS C DTWN  CLOUDY    70  55  59 SE12      29.93S
LEE`S SUMMIT   CLOUDY    68  56  65 SE10G20   29.96S
ST JOSEPH      CLOUDY    65  58  78 SE7       29.92S
CHILLICOTHE      N/A     65  56  72 VRB6      30.00S
KIRKSVILLE     PTCLDY    63  57  81 SE12      30.06R

$$
MOZ066>068-077>081-088>096-101>105-061200-
...SOUTHWEST MISSOURI...

CITY           SKY/WX    TMP DP  RH WIND       PRES   REMARKS
SPRINGFIELD    CLOUDY    66  53  63 S14       30.03S
JOPLIN         RAIN      63  61  93 SW14G23   30.02R FOG

$$
MOZ032>034-039>042-045>050-055>058-069>072-061200-
...CENTRAL MISSOURI...

CITY           SKY/WX    TMP DP  RH WIND       PRES   REMARKS
COLUMBIA       PTCLDY    62  53  72 SE10      30.06S
JEFFERSON CITY PTCLDY    63  52  67 E10       30.06S
ROLLA          CLEAR     61  51  70 SE10      30.08S
SEDALIA        MOCLDY    61  54  77 SE8       30.02S
WHITEMAN AFB   PTCLDY    67  55  65 S13       29.98F
WARRENSBURG    CLOUDY    66  54  63 SE9       29.98S
OSAGE BEACH    PTCLDY    63  50  63 S6        30.06R

$$
MOZ051-052-059>065-061200-
...EAST CENTRAL MISSOURI...

CITY           SKY/WX    TMP DP  RH WIND       PRES   REMARKS
ST LOUIS INTL  MOCLDY    67  55  65 S7        30.12R
SPIRIT OF STL  CLEAR     64  54  69 S5        30.10S
ST CHARLES     CLEAR     60  55  83 E5        30.11R

$$
MOZ072>076-082>087-097>100-106>115-061200-
...SOUTH CENTRAL AND SOUTHEAST MISSOURI...

CITY           SKY/WX    TMP DP  RH WIND       PRES   REMARKS
CAPE GIRARDEAU CLEAR     58  53  84 CALM      30.13S
FARMINGTON     CLEAR     55  52  88 CALM      30.17S
POPLAR BLUFF   CLEAR     55  52  89 N3        30.11S
WEST PLAINS    CLEAR     57  49  74 CALM      30.12R

$$



USA.gov is the U.S. government's official web portal to all federal, state and local government web resources and services.